Corpus Christi Jet Center

SKYE FBO - AIRPORT SERVICES
McCampbell-Porter Airport KTFP
Call Us 24/7: (361) 758-2000
KTFP - McCampbell-Porter Airport
Updated: Wed, 29-Mar-2017 11:15pm PDT
Clear
Clear
 Wind from S
Wind: S 3 mph , 6 km/h
Temperature: 68°F , 20°C
Dew Point: 63°F , 17°C
Humidity: 83%
Barometer: 29.83 inHg , 1010.2 hPa
Clouds: Clear
Visibility: 10 miles , 16 km
2017/03/30 06:15 KTFP 300615Z AUTO 17003KT 10SM CLR 20/17 A2983 RMK AO2 T01990170

Location

Skye FBO - Airport Services
McCampbell-Porter Airport KTFP
3141 FM 3512
Aransas Pass, TX 78336-9728
(361) 758-2000
2 miles N of Ingleside, TX
Only 15 min from downtown Corpus Christi 2 miles N of Ingleside, Texas and only 15 minutes from downtown Corpus Christi, Texas

(click to enlarge)

Skyview Aviation BBB Business Review

Flight Training & Testing

Skyview Aviation
www.skyviewtexas.com


Aircraft Services

image Experienced Line Service
Full Service Fueling - 100LL, Jet A (w/Prist)
Oil - Piston / Turbine Engine
Hangar Space (call for availability)
Cleaning
Maintenance
Tie Downs
APU - Fox Cart
Towing

Crew & Passenger Services

Flight Planning
Weather
Crew Cars
Enterprise Rental Cars
Catering
Newspapers
Concierge
WiFi
Baggage & Cargo Handling
Ice/Coffee
image

Management Services

image Individualized turnkey solutions for your general aviation needs